This is the latest recevied weather packets stored in our database for station/object KF7SOJ. If no packets are shown the sender has not sent any weather packets the latest 10 day(s).
| Time | Temp. | Humidity | Pressure | Rain* | Wind** | Luminosity | Snow |
|---|---|---|---|---|---|---|---|
| 1788551327 | 33.33° C | 13% | 925.2 hPa | 0 mm | - | 828 W/m² | - |
| 1788551026 | 33.33° C | 14% | 925.2 hPa | 0 mm | - | 827 W/m² | - |
| 1788550721 | 32.78° C | 14% | 925.2 hPa | 0 mm | - | 830 W/m² | - |
| 1788550416 | 32.78° C | 14% | 925.4 hPa | 0 mm | - | 831 W/m² | - |
| 1788550112 | 32.78° C | 14% | 925.3 hPa | 0 mm | - | 833 W/m² | - |
| 1788549807 | 32.78° C | 15% | 925.2 hPa | 0 mm | - | 832 W/m² | - |
| 1788549504 | 32.78° C | 14% | 925.3 hPa | 0 mm | - | 833 W/m² | - |
| 1788549200 | 32.78° C | 14% | 925.4 hPa | 0 mm | - | 833 W/m² | - |
| 1788548896 | 32.22° C | 15% | 925.3 hPa | 0 mm | - | 833 W/m² | - |
| 1788548592 | 32.22° C | 16% | 925.3 hPa | 0 mm | - | 833 W/m² | - |
| 1788548288 | 32.22° C | 17% | 925.4 hPa | 0 mm | - | 832 W/m² | - |
| 1788547983 | 31.67° C | 18% | 925.5 hPa | 0 mm | - | 831 W/m² | - |
| 1788547682 | 31.67° C | 17% | 925.7 hPa | 0 mm | - | 830 W/m² | - |
| 1788547378 | 31.67° C | 18% | 925.5 hPa | 0 mm | - | 828 W/m² | - |
| 1788547074 | 31.67° C | 19% | 925.7 hPa | 0 mm | - | 823 W/m² | - |
| 1788546774 | 30° C | 21% | 925.5 hPa | 0 mm | - | 813 W/m² | - |
| 1788546469 | 30° C | 21% | 925.8 hPa | 0 mm | - | 813 W/m² | - |
| 1788546164 | 30° C | 21% | 925.7 hPa | 0 mm | - | 808 W/m² | - |
| 1788545860 | 30° C | 21% | 925.7 hPa | 0 mm | - | 803 W/m² | - |
| 1788545559 | 30° C | 22% | 925.8 hPa | 0 mm | - | 794 W/m² | - |
| 1788545255 | 30° C | 22% | 925.6 hPa | 0 mm | - | 794 W/m² | - |
| 1788544950 | 29.44° C | 23% | 925.8 hPa | 0 mm | - | 786 W/m² | - |
| 1788544649 | 29.44° C | 22% | 925.8 hPa | 0 mm | - | 783 W/m² | - |
| 1788544347 | 29.44° C | 23% | 925.8 hPa | 0 mm | - | 776 W/m² | - |
| 1788544043 | 28.89° C | 24% | 925.8 hPa | 0 mm | - | 769 W/m² | - |
* Rain latest hour (hover to see other rain measurements)
** Current wind speed in m/s (hover to see current wind gust speed)